| time (UTC) | temp C | wind direction | speed KPH | gust KPH | rain 1hr cm | rain 24hr cm | rain mn cm | humidity % | barometer mb |
| 20260505054534 | 6 | 86 | 8.0 | 11.3 | 0.05 | 0.08 | 0.08 | 92 | 1012.6 |
| 20260505054017 | 6 | 88 | 3.2 | 6.4 | 0.05 | 0.08 | 0.08 | 92 | 1012.8 |
| 20260505053517 | 6 | 88 | 3.2 | 6.4 | 0.05 | 0.08 | 0.08 | 92 | 1012.9 |
| 20260505053030 | 6 | 103 | 1.6 | 6.4 | 0.08 | 0.08 | 0.08 | 92 | 1012.8 |
| 20260505052521 | 7 | 284 | 3.2 | 6.4 | 0.08 | 0.08 | 0.08 | 92 | 1012.8 |
| 20260505052020 | 7 | 284 | 3.2 | 11.3 | 0.08 | 0.08 | 0.08 | 92 | 1013.0 |
| 20260505051536 | 7 | 284 | 4.8 | 14.5 | 0.05 | 0.05 | 0.05 | 92 | 1013.1 |
| 20260505051018 | 7 | 271 | 6.4 | 17.7 | 0.05 | 0.05 | 0.05 | 91 | 1012.9 |
| 20260505050518 | 7 | 289 | 11.3 | 17.7 | 0.05 | 0.05 | 0.05 | 91 | 1013.0 |
| 20260505050116 | 7 | 281 | 11.3 | 19.3 | 0.05 | 0.05 | 0.05 | 90 | 1013.0 |
| 20260505041549 | 8 | 291 | 11.3 | 17.7 | 0.00 | 0.00 | 0.00 | 76 | 1012.8 |
| 20260505041018 | 9 | 13 | 11.3 | 17.7 | 0.00 | 0.00 | 0.00 | 73 | 1012.5 |
| 20260505040520 | 9 | 351 | 11.3 | 17.7 | 0.00 | 0.00 | 0.00 | 72 | 1012.4 |
| 20260505040043 | 9 | 9 | 12.9 | 17.7 | 0.00 | 0.00 | 0.00 | 71 | 1012.3 |
| 20260505035517 | 9 | 10 | 12.9 | 17.7 | 0.00 | 0.00 | 0.00 | 70 | 1012.2 |
| 20260505035018 | 9 | 32 | 11.3 | 17.7 | 0.00 | 0.00 | 0.00 | 70 | 1012.0 |
| 20260505034534 | 9 | 34 | 14.5 | 19.3 | 0.00 | 0.00 | 0.00 | 70 | 1011.9 |
| 20260505034020 | 9 | 34 | 11.3 | 19.3 | 0.00 | 0.00 | 0.00 | 71 | 1012.0 |
| 20260505033517 | 9 | 23 | 12.9 | 17.7 | 0.00 | 0.00 | 0.00 | 71 | 1011.9 |
| 20260505033032 | 9 | 23 | 8.0 | 12.9 | 0.00 | 0.00 | 0.00 | 72 | 1011.7 |
| 20260505032521 | 9 | 17 | 6.4 | 11.3 | 0.00 | 0.00 | 0.00 | 72 | 1011.6 |
| 20260505032017 | 9 | 360 | 6.4 | 12.9 | 0.00 | 0.00 | 0.00 | 71 | 1011.6 |
| 20260505031538 | 9 | 9 | 8.0 | 14.5 | 0.00 | 0.00 | 0.00 | 71 | 1011.6 |
| 20260505031017 | 9 | 26 | 8.0 | 14.5 | 0.00 | 0.00 | 0.00 | 70 | 1011.4 |
| 20260505030518 | 9 | 26 | 11.3 | 14.5 | 0.00 | 0.00 | 0.00 | 70 | 1011.4 |
| 20260505030040 | 9 | 24 | 8.0 | 14.5 | 0.00 | 0.00 | 0.00 | 70 | 1011.3 |
| 20260505025518 | 9 | 15 | 9.7 | 14.5 | 0.00 | 0.00 | 0.00 | 70 | 1011.3 |
| 20260505025112 | 9 | 17 | 8.0 | 12.9 | 0.00 | 0.00 | 0.00 | 70 | 1011.2 |
| 20260505024532 | 10 | 360 | 8.0 | 12.9 | 0.00 | 0.00 | 0.00 | 70 | 1011.4 |
| 20260505024015 | 10 | 323 | 3.2 | 12.9 | 0.00 | 0.00 | 0.00 | 69 | 1011.4 |
| 20260505023515 | 10 | 343 | 6.4 | 12.9 | 0.00 | 0.00 | 0.00 | 68 | 1011.3 |
| 20260505023039 | 10 | 338 | 6.4 | 9.7 | 0.00 | 0.00 | 0.00 | 66 | 1011.2 |
| 20260505022515 | 10 | 338 | 4.8 | 9.7 | 0.00 | 0.00 | 0.00 | 66 | 1011.2 |
| 20260505022017 | 10 | 350 | 4.8 | 9.7 | 0.00 | 0.00 | 0.00 | 66 | 1011.0 |
| 20260505021530 | 10 | 336 | 6.4 | 11.3 | 0.00 | 0.00 | 0.00 | 66 | 1011.0 |
| 20260505021015 | 10 | 360 | 4.8 | 11.3 | 0.00 | 0.00 | 0.00 | 66 | 1010.9 |
| 20260505020515 | 10 | 360 | 4.8 | 9.7 | 0.00 | 0.00 | 0.00 | 67 | 1010.9 |
| 20260505020036 | 10 | 346 | 3.2 | 12.9 | 0.00 | 0.00 | 0.00 | 69 | 1011.0 |
| 20260505015517 | 10 | 350 | 6.4 | 12.9 | 0.00 | 0.00 | 0.00 | 68 | 1010.8 |
| 20260505015016 | 10 | 343 | 4.8 | 12.9 | 0.00 | 0.00 | 0.00 | 68 | 1010.6 |
| 20260505014534 | 10 | 319 | 6.4 | 19.3 | 0.00 | 0.00 | 0.00 | 67 | 1010.7 |
| 20260505014015 | 10 | 325 | 6.4 | 29.0 | 0.00 | 0.00 | 0.00 | 65 | 1010.8 |
| 20260505013517 | 10 | 335 | 14.5 | 29.0 | 0.00 | 0.00 | 0.00 | 64 | 1010.9 |
| 20260505013036 | 10 | 9 | 20.9 | 35.4 | 0.00 | 0.00 | 0.00 | 66 | 1010.9 |
| 20260505012516 | 10 | 13 | 22.5 | 38.6 | 0.00 | 0.00 | 0.00 | 68 | 1010.8 |
| 20260505012016 | 10 | 352 | 29.0 | 38.6 | 0.00 | 0.00 | 0.00 | 66 | 1010.7 |
| 20260505011533 | 11 | 15 | 25.7 | 37.0 | 0.00 | 0.00 | 0.00 | 62 | 1010.6 |
| 20260505011019 | 11 | 22 | 25.7 | 37.0 | 0.00 | 0.00 | 0.00 | 60 | 1010.5 |
| 20260505010515 | 12 | 31 | 12.9 | 24.1 | 0.00 | 0.00 | 0.00 | 58 | 1010.4 |
| 20260505010030 | 12 | 36 | 11.3 | 27.4 | 0.00 | 0.00 | 0.00 | 55 | 1010.4 |
| 20260505005515 | 12 | 28 | 19.3 | 30.6 | 0.00 | 0.00 | 0.00 | 53 | 1010.3 |
| 20260505005016 | 12 | 33 | 24.1 | 37.0 | 0.00 | 0.00 | 0.00 | 52 | 1010.3 |
| 20260505004537 | 12 | 46 | 25.7 | 38.6 | 0.00 | 0.00 | 0.00 | 51 | 1010.3 |
| 20260505004016 | 13 | 59 | 29.0 | 38.6 | 0.00 | 0.00 | 0.00 | 46 | 1010.2 |
| 20260505003515 | 13 | 38 | 24.1 | 30.6 | 0.00 | 0.00 | 0.00 | 42 | 1010.0 |
| 20260505003030 | 13 | 32 | 20.9 | 30.6 | 0.00 | 0.00 | 0.00 | 41 | 1010.0 |
| 20260505002516 | 14 | 17 | 20.9 | 35.4 | 0.00 | 0.00 | 0.00 | 41 | 1009.9 |
| 20260505002015 | 14 | 350 | 24.1 | 37.0 | 0.00 | 0.00 | 0.00 | 41 | 1009.9 |
| 20260505001531 | 14 | 360 | 29.0 | 37.0 | 0.00 | 0.00 | 0.00 | 41 | 1009.8 |
| 20260505001014 | 15 | 352 | 29.0 | 37.0 | 0.00 | 0.00 | 0.00 | 39 | 1009.7 |
| 20260505000516 | 15 | 360 | 27.4 | 38.6 | 0.00 | 0.00 | 0.00 | 38 | 1009.8 |
| 20260505000039 | 15 | 21 | 29.0 | 38.6 | 0.00 | 0.00 | 0.00 | 37 | 1009.7 |
| 20260504235516 | 15 | 24 | 29.0 | 38.6 | 0.00 | 0.00 | 0.00 | 37 | 1009.7 |
| 20260504235015 | 15 | 26 | 30.6 | 38.6 | 0.00 | 0.00 | 0.00 | 37 | 1009.6 |
| 20260504234536 | 15 | 19 | 30.6 | 41.8 | 0.00 | 0.00 | 0.00 | 38 | 1009.6 |
| 20260504234015 | 15 | 19 | 24.1 | 41.8 | 0.00 | 0.00 | 0.00 | 37 | 1009.6 |
| 20260504233515 | 15 | 5 | 29.0 | 43.5 | 0.00 | 0.00 | 0.00 | 37 | 1009.6 |
| 20260504233033 | 15 | 11 | 33.8 | 45.1 | 0.00 | 0.00 | 0.00 | 36 | 1009.4 |
| 20260504232516 | 16 | 352 | 32.2 | 45.1 | 0.00 | 0.00 | 0.00 | 36 | 1009.5 |
| 20260504232016 | 16 | 5 | 30.6 | 40.2 | 0.00 | 0.00 | 0.00 | 36 | 1009.5 |
| 20260504231529 | 16 | 9 | 32.2 | 40.2 | 0.00 | 0.00 | 0.00 | 36 | 1009.4 |
| 20260504231015 | 16 | 360 | 29.0 | 46.7 | 0.00 | 0.00 | 0.00 | 34 | 1009.3 |
| 20260504230516 | 16 | 360 | 27.4 | 46.7 | 0.00 | 0.00 | 0.00 | 35 | 1009.3 |
| 20260504230034 | 16 | 30 | 35.4 | 48.3 | 0.00 | 0.00 | 0.00 | 35 | 1009.1 |
| 20260504225514 | 16 | 23 | 38.6 | 51.5 | 0.00 | 0.00 | 0.00 | 36 | 1009.1 |
| 20260504225014 | 16 | 12 | 40.2 | 51.5 | 0.00 | 0.00 | 0.00 | 36 | 1009.2 |
| 20260504224530 | 16 | 17 | 37.0 | 54.7 | 0.00 | 0.00 | 0.00 | 37 | 1009.1 |
| 20260504224016 | 16 | 360 | 41.8 | 54.7 | 0.00 | 0.00 | 0.00 | 36 | 1008.9 |
| 20260504223516 | 16 | 13 | 41.8 | 54.7 | 0.00 | 0.00 | 0.00 | 36 | 1009.0 |
| 20260504223030 | 16 | 30 | 38.6 | 54.7 | 0.00 | 0.00 | 0.00 | 36 | 1008.9 |
| 20260504222518 | 16 | 21 | 41.8 | 54.7 | 0.00 | 0.00 | 0.00 | 35 | 1008.8 |
| 20260504222019 | 16 | 22 | 41.8 | 54.7 | 0.00 | 0.00 | 0.00 | 34 | 1008.8 |
| 20260504221534 | 17 | 9 | 38.6 | 49.9 | 0.00 | 0.00 | 0.00 | 32 | 1008.7 |
| 20260504221015 | 17 | 22 | 32.2 | 45.1 | 0.00 | 0.00 | 0.00 | 30 | 1008.6 |
| 20260504220515 | 17 | 10 | 32.2 | 45.1 | 0.00 | 0.00 | 0.00 | 30 | 1008.4 |
| 20260504220032 | 18 | 360 | 33.8 | 45.1 | 0.00 | 0.00 | 0.00 | 29 | 1008.3 |
| 20260504215515 | 18 | 14 | 32.2 | 41.8 | 0.00 | 0.00 | 0.00 | 28 | 1008.3 |
| 20260504215017 | 18 | 25 | 22.5 | 32.2 | 0.00 | 0.00 | 0.00 | 25 | 1008.5 |
| 20260504214529 | 18 | 22 | 17.7 | 33.8 | 0.00 | 0.00 | 0.00 | 26 | 1008.7 |
| 20260504214015 | 18 | 336 | 22.5 | 33.8 | 0.00 | 0.00 | 0.00 | 26 | 1008.8 |
| 20260504213515 | 18 | 324 | 17.7 | 33.8 | 0.00 | 0.00 | 0.00 | 26 | 1009.0 |
| 20260504213053 | 18 | 351 | 20.9 | 30.6 | 0.00 | 0.00 | 0.00 | 26 | 1008.9 |
| 20260504212516 | 19 | 323 | 17.7 | 38.6 | 0.00 | 0.00 | 0.00 | 25 | 1008.8 |
| 20260504212017 | 18 | 352 | 25.7 | 38.6 | 0.00 | 0.00 | 0.00 | 25 | 1008.9 |
| 20260504211532 | 18 | 350 | 24.1 | 37.0 | 0.00 | 0.00 | 0.00 | 25 | 1009.0 |
| 20260504211016 | 19 | 360 | 24.1 | 37.0 | 0.00 | 0.00 | 0.00 | 25 | 1008.9 |
| 20260504210516 | 19 | 20 | 16.1 | 27.4 | 0.00 | 0.00 | 0.00 | 24 | 1008.9 |
| 20260504210030 | 19 | 13 | 14.5 | 24.1 | 0.00 | 0.00 | 0.00 | 23 | 1009.0 |
| 20260504205516 | 19 | 351 | 11.3 | 24.1 | 0.00 | 0.00 | 0.00 | 23 | 1009.0 |
| 20260504205015 | 19 | 352 | 9.7 | 24.1 | 0.00 | 0.00 | 0.00 | 23 | 1009.0 |
| 20260504204533 | 19 | 338 | 16.1 | 25.7 | 0.00 | 0.00 | 0.00 | 22 | 1009.0 |
| 20260504204015 | 19 | 348 | 11.3 | 32.2 | 0.00 | 0.00 | 0.00 | 22 | 1009.0 |
| 20260504203515 | 19 | 360 | 16.1 | 32.2 | 0.00 | 0.00 | 0.00 | 22 | 1009.0 |
| 20260504203035 | 20 | 271 | 9.7 | 29.0 | 0.00 | 0.00 | 0.00 | 21 | 1009.0 |
| 20260504202514 | 20 | 344 | 16.1 | 32.2 | 0.00 | 0.00 | 0.00 | 20 | 1009.0 |
| 20260504202016 | 21 | 348 | 9.7 | 32.2 | 0.00 | 0.00 | 0.00 | 20 | 1008.9 |
| 20260504201533 | 21 | 333 | 14.5 | 32.2 | 0.00 | 0.00 | 0.00 | 22 | 1009.0 |
| 20260504201018 | 21 | 271 | 16.1 | 25.7 | 0.00 | 0.00 | 0.00 | 21 | 1009.1 |
| 20260504200516 | 20 | 300 | 12.9 | 48.3 | 0.00 | 0.00 | 0.00 | 24 | 1009.0 |
| 20260504200032 | 18 | 254 | 19.3 | 48.3 | 0.00 | 0.00 | 0.00 | 25 | 1009.1 |
| 20260504195515 | 18 | 258 | 24.1 | 49.9 | 0.00 | 0.00 | 0.00 | 25 | 1009.0 |
| 20260504195017 | 18 | 297 | 27.4 | 49.9 | 0.00 | 0.00 | 0.00 | 24 | 1009.1 |
| 20260504194530 | 18 | 267 | 24.1 | 38.6 | 0.00 | 0.00 | 0.00 | 24 | 1009.1 |
| 20260504194018 | 18 | 295 | 16.1 | 29.0 | 0.00 | 0.00 | 0.00 | 25 | 1009.2 |
| 20260504193517 | 19 | 271 | 14.5 | 29.0 | 0.00 | 0.00 | 0.00 | 23 | 1009.0 |
| 20260504193037 | 19 | 276 | 19.3 | 30.6 | 0.00 | 0.00 | 0.00 | 23 | 1009.2 |
| 20260504192513 | 19 | 258 | 17.7 | 35.4 | 0.00 | 0.00 | 0.00 | 22 | 1009.2 |
| 20260504192013 | 19 | 279 | 14.5 | 38.6 | 0.00 | 0.00 | 0.00 | 21 | 1009.1 |
| 20260504191532 | 19 | 281 | 25.7 | 38.6 | 0.00 | 0.00 | 0.00 | 22 | 1009.0 |
| 20260504191017 | 19 | 294 | 16.1 | 29.0 | 0.00 | 0.00 | 0.00 | 23 | 1009.0 |
| 20260504190514 | 19 | 292 | 16.1 | 29.0 | 0.00 | 0.00 | 0.00 | 23 | 1009.0 |
| 20260504190029 | 19 | 280 | 20.9 | 29.0 | 0.00 | 0.00 | 0.00 | 24 | 1009.0 |
| 20260504185519 | 19 | 284 | 19.3 | 29.0 | 0.00 | 0.00 | 0.00 | 24 | 1009.0 |
| 20260504185017 | 19 | 276 | 9.7 | 20.9 | 0.00 | 0.00 | 0.00 | 22 | 1009.2 |
| 20260504184532 | 19 | 284 | 11.3 | 20.9 | 0.00 | 0.00 | 0.00 | 23 | 1009.2 |
| 20260504184013 | 20 | 305 | 12.9 | 20.9 | 0.00 | 0.00 | 0.00 | 21 | 1009.1 |
| 20260504183514 | 20 | 270 | 12.9 | 29.0 | 0.00 | 0.00 | 0.00 | 23 | 1009.2 |
| 20260504183031 | 21 | 312 | 9.7 | 29.0 | 0.00 | 0.00 | 0.00 | 23 | 1009.4 |
| 20260504182519 | 21 | 351 | 14.5 | 29.0 | 0.00 | 0.00 | 0.00 | 23 | 1009.2 |
| 20260504182013 | 21 | 322 | 14.5 | 25.7 | 0.00 | 0.00 | 0.00 | 21 | 1009.3 |
| 20260504181532 | 20 | 311 | 9.7 | 25.7 | 0.00 | 0.00 | 0.00 | 22 | 1009.4 |
| 20260504181016 | 20 | 317 | 4.8 | 29.0 | 0.00 | 0.00 | 0.00 | 23 | 1009.4 |
| 20260504180516 | 20 | 352 | 12.9 | 29.0 | 0.00 | 0.00 | 0.00 | 23 | 1009.5 |
| 20260504180032 | 20 | 310 | 19.3 | 29.0 | 0.00 | 0.00 | 0.00 | 21 | 1009.5 |
| 20260504175515 | 20 | 315 | 9.7 | 25.7 | 0.00 | 0.00 | 0.00 | 23 | 1009.6 |
| 20260504175018 | 20 | 281 | 16.1 | 25.7 | 0.00 | 0.00 | 0.00 | 22 | 1009.6 |
| 20260504174531 | 21 | 340 | 12.9 | 25.7 | 0.00 | 0.00 | 0.00 | 22 | 1009.7 |
| 20260504174017 | 21 | 326 | 9.7 | 24.1 | 0.00 | 0.00 | 0.00 | 24 | 1009.8 |
| 20260504173517 | 20 | 331 | 16.1 | 29.0 | 0.00 | 0.00 | 0.00 | 22 | 1009.8 |
| 20260504173037 | 20 | 360 | 12.9 | 29.0 | 0.00 | 0.00 | 0.00 | 22 | 1009.8 |
| 20260504172517 | 20 | 298 | 17.7 | 29.0 | 0.00 | 0.00 | 0.00 | 22 | 1009.9 |
| 20260504172017 | 20 | 317 | 14.5 | 20.9 | 0.00 | 0.00 | 0.00 | 22 | 1009.9 |
| 20260504171536 | 20 | 288 | 12.9 | 30.6 | 0.00 | 0.00 | 0.00 | 22 | 1010.0 |
| 20260504171018 | 20 | 279 | 17.7 | 30.6 | 0.00 | 0.00 | 0.00 | 22 | 1010.1 |
| 20260504170518 | 20 | 257 | 16.1 | 32.2 | 0.00 | 0.00 | 0.00 | 24 | 1010.1 |
| 20260504151017 | 17 | 265 | 25.7 | 33.8 | 0.00 | 0.00 | 0.00 | 26 | 1010.8 |
| 20260504150518 | 17 | 271 | 24.1 | 32.2 | 0.00 | 0.00 | 0.00 | 27 | 1010.8 |
| 20260504141017 | 13 | 250 | 11.3 | 27.4 | 0.00 | 0.00 | 0.00 | 38 | 1010.9 |
| 20260504140516 | 13 | 231 | 14.5 | 29.0 | 0.00 | 0.00 | 0.00 | 36 | 1010.9 |
| 20260504130517 | 9 | 221 | 14.5 | 22.5 | 0.00 | 0.00 | 0.00 | 47 | 1010.6 |
| 20260504110517 | 7 | 227 | 17.7 | 20.9 | 0.00 | 0.00 | 0.00 | 53 | 1010.6 |
| 20260504100517 | 5 | 242 | 16.1 | 19.3 | 0.00 | 0.00 | 0.00 | 59 | 1010.9 |
| 20260504081535 | 8 | 228 | 11.3 | 14.5 | 0.00 | 0.00 | 0.00 | 51 | 1011.6 |
| 20260504081017 | 8 | 243 | 12.9 | 16.1 | 0.00 | 0.00 | 0.00 | 50 | 1011.6 |
| 20260504080516 | 8 | 253 | 11.3 | 16.1 | 0.00 | 0.00 | 0.00 | 48 | 1011.6 |